www.pogodaiklimat.ru

Погода и климат >> Архив погоды >> Китай >> Синьцзян-Уйгурский автономный район >> Хобоксар


ПОГОДА в Хобоксаре

  • Прогноз погоды в Хобоксаре
  • Монитор погоды в Хобоксаре

АРХИВ ПОГОДЫ в Хобоксаре

Время (UTC), дата Ветер
(напр.,м/с)
 
Видим.   Явления Облачность Т
(С)
Тd
(С)
f
(%)
Тe
(С)
Тes
(С)
Комфортность P
(гПа)
Po
(гПа)
Тmin
(С)
Tmax
(С)
R
(мм)
R24
(мм)
S
(см)
21 16.07 СЗ 5 30 км н/о +16.4 +4.8 46 +16 +16 1002.7 860.7
00 17.07 С 3 30 км ясно +15.7 +7.7 59 +15 +16 1004.5 862.7
03 17.07 З 3 30 км ясно +22.8 +4.3 30 +23 +31 комфорт 1004.7 865.2
06 17.07 ЮВ 6 30 км 4/4
[]
+26.6 +3.8 23 +25 +30 комфорт 1004.2 863.3 +13.7
09 17.07 В 7 22 км 4/4
[]
+29.1 +0.7 16 +27 +29 жарко 1003.4 866.8
12 17.07 В 5 24 км 3/3
[]
+27.7 +3.4 21 +26 +27 жарко 1004.2 862.9
15 17.07 С 1 30 км ?/? +21.7 +7.5 40 +23 +23 комфорт 1005.9 865.8
18 17.07 СЗ 4 30 км ?/? +16.2 +7.7 57 +16 +16 1006.6 864.8 +29.5
21 17.07 СЗ 4 30 км н/о +15.3 +4.1 47 +14 +14 1005.7 862.8
00 18.07 С 1 30 км 3/3
[]
+17.2 +3.8 41 +18 +19 1005.6 864.4
03 18.07 ЮВ 2 30 км 6/6
[]
+25.2 +1.3 21 +24 +28 комфорт 1006.1 867.5
06 18.07 В 2 30 км 3/3
[]
+27.7 +2.0 19 +26 +38 жарко 1006.2 864.7 +14.7
09 18.07 В 4 30 км 8/8 1500 м
[]
+29.4 +1.0 16 +27 +29 жарко 1004.7 868.1
12 18.07 В 3 15 км 9/9 1500 м
[]
+28.0 +1.5 18 +26 +26 жарко 1004.0 863.1
15 18.07 СЗ 2 30 км н/о +24.6 +5.4 29 +24 +24 комфорт 1003.7 865.2
18 18.07 СЗ 3 30 км ?/? +20.5 +5.7 38 +22 +22 комфорт 1003.5 863.3 +30.1
21 18.07 З 6 30 км н/о +18.0 +6.8 48 +17 +17 1003.1 861.7
00 19.07 З 4 30 км 3/3
[]
+18.4 +6.6 46 +19 +19 1003.7 863.1
03 19.07 ЮЗ 5 26 км ясно +25.9 +5.5 27 +25 +31 комфорт 1002.3 864.5
06 19.07 ЮЗ 6 30 км 3/3
[]
+29.1 +3.9 20 +27 +32 жарко 1001.5 861.9 +16.3
09 19.07 З 7 30 км 5/5 1500 м
[]
+30.1 +1.5 16 +28 +29 жарко 1001.1 865.3
12 19.07 З 8 30 км 6/6 1500 м
[]
+27.4 +5.7 25 +26 +27 жарко 1001.4 861.0
15 19.07 З 6 30 км н/о +23.0 +7.1 36 +24 +24 комфорт 1001.9 862.9
18 19.07 З 8 30 км ?/? +19.5 +7.6 46 +20 +20 1002.1 862.2 +30.4
21 19.07 З 9 30 км н/о +18.0 +6.8 48 +17 +17 1001.3 860.2
00 20.07 З 7 30 км 9/9 1500 м
[]
+18.7 +5.9 43 +18 +18 1001.8 861.4
03 20.07 ЮЗ 11 26 км 8/8 1500 м
[]
+23.4 +4.9 30 +23 +23 комфорт 1001.6 862.8
06 20.07 З 10 30 км 6/6 1500 м
[]
+25.8 +3.1 23 +25 +25 комфорт 1001.4 860.9 +16.6
09 20.07 З 13
{19}
17 км 6/6 1500 м
[]
+22.3 +6.5 36 +23 +23 комфорт 1002.8 863.4
12 20.07 З 10
{19}
30 км 9/9 1500 м
[]
+22.7 +6.9 36 +23 +23 комфорт 1002.0 860.5
15 20.07 В 5 30 км н/о +19.2 +8.8 51 +20 +20 1002.9 862.1
18 20.07 СЗ 4 30 км ?/? +16.3 +8.3 59 +16 +16 1003.6 862.1 +27.4
21 20.07 С 1 30 км н/о +13.0 +7.7 70 +13 +13 1005.1 861.2
00 21.07 З 3 30 км 3/3 1500 м
[]
+15.8 +7.6 58 +15 +16 1004.5 862.0
03 21.07 Ю 5 30 км 4/4 1500 м
[]
+21.9 +5.3 34 +22 +26 комфорт 1004.4 864.6
06 21.07 Ю 4 30 км 6/6 1500 м
[]
+23.5 +5.4 31 +23 +28 комфорт 1004.7 862.5 +12.8
09 21.07 З 6 30 км 8/8 1500 м
[]
+26.9 +1.4 19 +25 +26 комфорт 1003.9 866.3
12 21.07 З 5 30 км 4/4 1500 м
[]
+25.3 +5.5 28 +25 +25 комфорт 1003.4 861.7
15 21.07 З 2 30 км н/о +20.4 +5.2 37 +22 +22 комфорт 1004.1 863.7
18 21.07 СВ 5 30 км ?/? +18.6 +8.6 52 +19 +19 1004.2 862.6 +27.3
21 21.07 СЗ 4 30 км н/о +15.6 +7.9 60 +15 +15 1003.3 860.8
00 22.07 З 5 30 км 3/3 1500 м
[]
+16.7 +7.9 56 +16 +16 1003.7 862.1
03 22.07 З 3 30 км 6/6 1500 м
[]
+22.1 +7.9 40 +23 +26 комфорт 1003.5 863.9
06 22.07 Ю 6 30 км 8/8 1500 м
[]
+24.2 +6.9 33 +24 +26 комфорт 1002.4 861.2 +13.8
09 22.07 В 7 30 км 8/8 1500 м
[]
+22.2 +8.3 41 +23 +24 комфорт 1003.6 864.0
12 22.07 В 2 30 км 8/8 1500 м
[]
+21.1 +9.0 46 +22 +23 комфорт 1004.8 862.1
15 22.07 З 2 30 км н/о +16.2 +13.1 82 +16 +16 1005.1 862.6
18 22.07 З 3 30 км ?/? +16.6 +10.9 69 +16 +16 1003.3 861.5 +26.1 0.1
21 22.07 С 3 30 км н/о +14.5 +8.0 65 +14 +14 1003.9 860.8
00 23.07 ЮЗ 2 30 км 9/9 1500 м
[]
+16.7 +7.9 56 +17 +17 1003.1 860.7 0.1
03 23.07 Ю 1 30 км 8/8 1500 м
[]
+20.8 +6.7 40 +23 +25 комфорт 1003.8 863.6
06 23.07 З 10 30 км 8/8 1500 м
[]
+25.1 -0.1 19 +24 +24 комфорт 1001.2 859.9 +14.3
09 23.07 З 11
{18}
27 км 8/8 1500 м
[]
+25.4 +2.8 23 +24 +24 комфорт 1000.9 863.1
12 23.07 З 9
{18}
30 км 6/6 1500 м
[]
+21.5 +5.8 36 +22 +22 комфорт 1003.4 861.0
15 23.07 З 6
{17}
30 км н/о +19.5 +8.2 48 +20 +20 1003.3 862.6
18 23.07 СЗ 2 30 км ?/? +15.5 +7.5 59 +15 +15 1003.4 861.6 +26.2

 

Местоположение метеостанции Хобоксар (Синьцзян-Уйгурский автономный район, Китай): широта 46.78 долгота 85.72 высота над уровнем моря 1294 м.

В архиве по умолчанию представлена погода в Хобоксаре за последнюю неделю. Архивные данные за месяц целиком и за предыдущие месяцы, начиная с января 2011 года, Вы можете получить, выбрав интересующий диапазон дат из раскрывающегося списка и нажав кнопку "Ввод!".


*Определитесь, кто Вы:
робот инопланетянин человек

Внимание! Время в таблицах - всемирное. Для получения местного времени необходимо прибавить поправку, которая равна 8 ч.

Смотрите также архив погоды в соседних городах и на ближайших метеорологических станциях:

Погода в Зайсане (Восточно-Казахстанская область, Казахстан) (98 км)
Погода в Тасбастау (Восточно-Казахстанская область, Казахстан) (101 км)
Погода в Карабулаке (Восточно-Казахстанская область, Казахстан) (116 км)
Погода в Боране (Восточно-Казахстанская область, Казахстан) (142 км)
Погода в Карамае (Синьцзян-Уйгурский автономный район, Китай) (147 км)
Погода в Кабе (Синьцзян-Уйгурский автономный район, Китай) (149 км)
Погода в Тугыле (Восточно-Казахстанская область, Казахстан) (156 км)
Погода в Акжаре (Восточно-Казахстанская область, Казахстан) (178 км)
Погода в Теректы (Восточно-Казахстанская область, Казахстан) (182 км)
Погода в Алтае (Синьцзян-Уйгурский автономный район, Китай) (207 км)

Пояснения к столбцам:

Ветер - указаны скорость ветра в м/с - средняя за 10 мин, порывы в срок и между сроками (в фигурных скобках) и направление, откуда дует ветер: С - северный, СВ - северо-восточный, В - восточный, ЮВ - юго-восточный, Ю - южный, ЮЗ - юго-западный, З - западный, СЗ - северо-западный.
Видимость - горизонтальная дальность видимости в метрах или километрах. При видимости от 1 до 10 км при отсутствии осадков обычно наблюдается дымка, при ухудшении видимости до 1 км и менее - туман. В сухую погоду видимость может ухудшаться дымом, пылью или мглою.
Явления - указаны атмосферные явления, наблюдавшиеся в срок или в последний час перед сроком; фигурными скобками обозначены явления, наблюдавшиеся между сроками (за 1-3 часа до срока); квадратными скобками обозначены град или гололедные отложения с указанием их диаметра в мм.
Облачность - указаны через наклонную черту общая и нижняя облачность в баллах и высота нижней границы облаков в метрах; квадратными скобками обозначены формы облаков: Ci - перистые, Cs - перисто-слоистые, Cc - перисто-кучевые, Ac - высококучевые, As - высокослоистые, Sc - слоисто-кучевые, Ns - слоисто-дождевые, Cu - кучевые, Cb - кучево-дождевые. Подробнее классификацию облаков см. в Атласе облаков (PDF).
T - Температура воздуха - температура, измеренная на высоте 2 м над землей.
Td - Температура точки росы - температура, при понижении до которой содержащийся в воздухе водяной пар достигнет насыщения.
f - Относительная влажность воздуха - влажноcть воздуха, измеренная на высоте 2 м над землей.
Te - Эффективная температура - температура, которую ощущает одетый по сезону человек в тени. Характеристика душности погоды. При расчете учитывается влияние влажности воздуха и скорости ветра на теплоощущения человека.
Tes - Эффективная температура на солнце - температура, которую ощущает человек, с поправкой на солнечный нагрев. Характеристика знойности погоды. Зависит от высоты солнца над горизонтом, облачности и скорости ветра. Ночью, в пасмурную погоду, а также при ветре 12 м/с и более поправка равна нулю.
P - Атмосферное давление - приведенное к уровню моря атмосферное давление.
Po - Атмосферное давление - измеренное на уровне метеостанции атмосферное давление.
Tmin - Минимальная температура - минимум температуры воздуха на высоте 2 м над землей.
Tmax - Максимальная температура - максимум температуры воздуха на высоте 2 м над землей.
R - Количество осадков - Количество выпавших осадков за период времени, мм. При наведении курсора мыши на число - период времени, за который выпало указанное количество осадков.
R24 - Количество осадков - Количество выпавших осадков за 24 часа, мм.
S - Снежный покров - Высота снежного покрова, см. При наведении курсора мыши на число - состояние снежного покрова и степень покрытия местности в баллах.